STARLINK-35457, 66433

Orbit data source: Space-Track

STARLINK-35457, 66433 is a payload satellite owned by SpaceX/Seattle (US) in LEO that was launched on Tue, 11 Nov 2025 UTC via an FALCON 9 launch vehicle from the Air Force Eastern Test Range (AFETR). Payload-class satellites include a variety of spacecraft equipped with specific instruments for various scientific and technological missions. These include communications satellites like Starlink; space stations such as the ISS; scientific satellites like the Hubble; Earth observation satellites from companies like Planet Labs, Umbra, and HawkEye 360; GPS; miniature CubeSats for education and research; and military/defense satellites.

Loading next visibility...
Identifier
66433, 2025-259M
Orbit
LEO
Country
Flag of USUS
Related business
Manufacturer
SpaceX/Seattle
Mission
Operational Commercial Communications
Bus & Motor
STARLINK V2MO, Unknown motor
Mass
575 kg wet, ~530 kg dry
Launch date (UTC)
2025-11-11 (7 months ago)
Launch vehicle
FALCON 9
Launch site
Air Force Eastern Test Range (AFETR)
Object type
Payload
Rocket body
Debris
Shape & HBR
Box + 2 Pan, 17.7 m
Radar Cross Section
36.964 m², Large (>1 m²)

Expand to show TLE details & history
Last TLE update: 14 hours ago

TLE from 14 hours ago
0 STARLINK-35457
1 66433U 25259M   26150.09043625  .00028424  00000-0  10379-2 0  9990
2 66433  42.9986 174.3653 0000893 150.4167 209.6736 15.27596825 31945
Epoch: 2026-05-30T02:10Z
TLE epoch observation values (Epoch: 2026-05-30T02:10:13.692Z)
Latitude
0.00001°
Longitude
-105.80319°
Altitude
483.306 km
Speed
7.625 km/s
True Right ascension
11h 37m 27s
True Declination
0° 00' 00"
Sunlit
Object was in daylight at epoch
Visualization orbit readout
Latitude
Unknown
Longitude
Unknown
Altitude
Unknown
Speed
Unknown
Apparent Right ascension
Unknown
Apparent Declination
Unknown
Sunlit
N/A
Visualization observer readout
Local Sidereal Time
02:00:19
Azimuth
Unknown
Elevation
Unknown
Doppler factor
Unknown
Orbital elements
Apogee altitude
485.557 km
Perigee altitude
484.331 km
Semi-major axis
6,863.081 km
Eccentricity
0.00009
Inclination
42.9986°
RAAN
174.3653°
Arg. of periapsis
150.4167°
True anomaly
209.66853°
Mean anomaly
209.6736°
Eccentric anomaly
209.67107°
Mean motion
3.81737 °/min
Orbital period
94.31 mins
BSTAR
0.0010379
Loading maneuver chart data...
Computing Atmospheric mass density...
Loading historical data...
Loading historical data...
Loading historical data...
Loading historical data...
Loading historical data...
Loading historical data...
Loading historical data...

Documentation

Showing up to 5 results
|